Location: Canet
(43.3261°N, 5.3723°E)
Time: 23:40:41
(UTC+00:00)

X-37B - Pass Details

Date: 26 September 2021
Orbit: 385 x 389 km, 45.0° (Epoch: 17 October)

Event Time Altitude Azimuth Distance (km) Brightness Sun altitude
Exits shadow 02:45:15 11° 84° (E) 1,343 4.1 -29.6°
Drops below altitude 10° 02:45:26 10° 83° (E) 1,413 4.2 -29.6°
Sets 02:47:34 0° 76° (ENE) 2,271 5.6 -29.3°
